Location: 3 Angels Observatory
(30.5437°N, 88.5068°W)
Time: 10:42:13
(UTC-05:00)

Daily predictions for brighter satellites

Satellite Brightness Start Highest point End
(mag) Time Altitude Azimuth Time Altitude Azimuth Time Altitude Azimuth
Cosmos 1500 4.3 20:11:14 10° NNE 20:14:32 26° E 20:17:50 10° SE
Meteor 1-12 Rocket 4.4 20:09:03 10° N 20:14:56 88° E 20:20:40 10° S
Skynet4D Del rocket 4.3 20:11:26 10° W 20:16:38 40° SSW 20:21:36 10° SE
NOSS 0 Rocket 4.4 20:13:54 10° SSW 20:20:05 70° WNW 20:26:16 10° NNE
FengYun 1-2 T 4.3 20:16:50 10° SSE 20:22:21 90° E 20:27:51 10° NNW
Cosmos 1743 4.3 20:19:40 10° NNE 20:22:23 18° ENE 20:25:01 10° ESE
Delta 168 4.1 20:22:47 10° SSW 20:25:39 22° SSE 20:29:08 10° ESE
TIMED 4.5 20:22:18 10° NNW 20:26:40 76° ENE 20:31:01 10° SSE
PSLV R/B 3.9 20:26:47 10° SSW 20:30:03 36° SE 20:33:20 10° ENE
Cosmos 1606 Rocket 4.5 20:28:09 10° NNE 20:32:05 30° E 20:35:36 12° SE
CZ-4 DEB 2.9 20:29:47 10° SSE 20:32:57 56° ENE 20:36:07 10° N
H-2A R/B 3.3 20:31:19 12° ESE 20:34:19 24° ENE 20:37:46 10° NNE
Meteor 2-4 Rocket 4.3 20:29:12 10° SSE 20:34:28 38° E 20:39:51 10° NNE
BREEZE-M R/B 2.9 20:33:14 10° NW 20:36:21 84° SW 20:41:27 13° SE
Tiangong 1 2.8 20:34:11 10° W 20:36:51 25° SW 20:39:25 11° SSE
CZ-2C R/B 1.9 20:36:00 17° ESE 20:36:55 21° ENE 20:38:47 10° NNE
Cosmos 2333 Rocket 3.3 20:33:01 10° SW 20:38:28 49° WNW 20:43:56 10° N
Resurs 01 Rocket 4.0 20:35:41 10° SSW 20:39:12 23° W 20:42:45 10° NW
ATLAS 3B CENTAUR R/B 3.7 20:39:13 10° WSW 20:42:41 23° S 20:48:21 12° SE
H-2A R/B 2.8 20:45:00 10° SSE 20:48:54 89° WSW 20:52:53 10° NNW
Cosmos 1975 4.0 20:45:27 10° NNW 20:49:15 43° W 20:53:01 10° SSW
Cosmos 2098 Rocket 2.8 20:49:33 10° N 20:52:59 76° W 20:57:18 10° S
ATLAS CENTAUR R/B 3.4 20:49:49 10° SW 20:54:22 39° WNW 20:59:05 10° N
USA 186 2.2 20:51:24 10° S 20:54:25 54° W 20:57:15 10° NNW
Cosmos 1844 4.1 20:49:19 10° NNW 20:55:04 67° WSW 21:00:47 10° S
SeaSat 1 3.8 20:53:10 16° E 20:55:48 24° ENE 20:59:44 10° N
Cosmos 1844 Rocket 3.7 20:50:45 10° NNW 20:56:07 45° WSW 21:01:26 10° S
Cosmos 2251 Rocket 4.0 20:56:00 10° SSW 21:01:14 65° WNW 21:06:32 10° N
FENGYUN 3A 3.9 20:57:05 10° S 21:02:23 68° WSW 21:07:45 10° NNW
Cosmos 1892 Rocket 3.6 20:58:24 10° S 21:02:48 87° W 21:07:16 10° N
Cosmos 1025 Rocket 3.8 20:58:31 10° SSW 21:02:49 55° W 21:07:08 10° N
CZ-4B R/B 4.5 20:58:40 10° NE 21:02:56 26° E 21:04:21 23° ESE
Hubble Space Telescope 2.3 21:00:20 10° WSW 21:03:43 24° SSW 21:05:15 19° SSE
Cosmos 2228 4.0 21:02:52 10° NNE 21:06:46 30° E 21:07:58 26° ESE
Intelsat 5-2 Rocket 4.5 21:06:59 10° SSW 21:07:08 10° SSW 21:07:08 10° SSW
ALOS 3.3 21:07:36 10° S 21:12:03 45° W 21:16:31 10° NNW
Atlas Centaur 2 3.1 21:05:20 10° SW 21:12:44 55° SSE 21:20:37 12° E
BREEZE-M DEB (TANK) 4.1 21:11:48 10° N 21:13:03 13° NE 21:13:12 13° NE
OTV 4 0.5 21:12:16 10° WNW 21:15:12 61° SSW 21:15:32 55° S
COSMOS 2455 3.5 21:13:21 25° SE 21:15:27 31° ESE 21:20:39 10° NE
ATLAS 3B R/B 4.1 21:18:09 20° E 21:18:09 20° E 21:22:48 10° ENE
Nimbus 7 Rocket 4.3 21:12:55 10° NNE 21:18:54 86° ESE 21:24:48 10° SSW
Envisat 3.3 21:16:48 30° SE 21:18:59 49° ENE 21:23:52 10° N
ERS-1 Rocket 3.1 21:16:52 18° S 21:20:35 76° WSW 21:25:37 10° NNW
Cosmos 1939 Rocket 2.9 21:19:32 36° SE 21:21:05 66° ENE 21:25:12 10° N
Meteor 1-15 Rocket 4.3 21:18:53 10° N 21:24:23 56° E 21:26:46 33° SE
Cosmos 1110 Rocket 3.9 21:20:54 10° NNW 21:26:13 84° ENE 21:28:42 32° SSE
Cosmos 2285 Rocket 4.1 21:20:25 10° N 21:26:41 63° ENE 21:29:39 32° SE
PSLV R/B 3.8 21:30:19 42° NE 21:30:19 42° NE 21:32:48 10° N
Cosmos 2278 Rocket 3.0 21:25:11 10° NNW 21:30:36 47° WSW 21:34:39 17° S
USA 234 4.2 21:27:51 21° E 21:31:32 37° NE 21:37:28 10° NNW
Cosmos 1726 Rocket 4.3 21:30:08 10° NNW 21:34:26 51° W 21:37:06 21° SSW
Cosmos 1464 Rocket 4.0 21:35:31 10° N 21:41:40 82° W 21:45:12 27° S
Cosmos 2058 Rocket 3.6 21:38:39 10° NNW 21:42:55 55° W 21:44:45 31° SSW
SL-16 R/B 3.9 21:38:48 10° SW 21:43:52 34° WNW 21:48:58 10° N
Cosmos 2369 Rocket 4.3 21:43:32 10° NE 21:45:22 11° NE 21:46:13 11° ENE
Aureole 2 Rocket 3.9 21:42:23 10° SW 21:46:19 42° WNW 21:49:58 10° N
Cosmos 1602 Rocket 3.6 21:45:02 41° SSW 21:46:35 80° W 21:51:04 10° N
ARGOS 3.9 21:48:12 34° E 21:48:42 35° ENE 21:53:35 10° N
Cosmos 1666 2.7 21:45:11 10° N 21:49:04 77° W 21:49:17 74° SW
H-2A R/B 3.9 21:50:30 15° ENE 21:50:30 15° ENE 21:52:49 10° NNE
Cosmos 1816 Rocket 4.5 21:50:07 40° SSE 21:52:25 68° E 21:58:43 10° NNE
SPOT 1/Viking Rocket 3.6 21:57:45 54° E 21:58:07 55° ENE 22:03:09 10° N
Cosmos 2034 Rocket 4.0 21:52:33 10° N 21:58:56 80° W 22:01:31 39° S
USA 245 4.5 21:57:47 50° SE 21:59:07 62° ENE 22:04:49 10° N
Cosmos 1812 Rocket 3.8 21:58:28 10° N 22:02:13 56° NE 22:02:13 56° NE
Timation 1 Rocket 4.3 21:58:26 10° NNW 22:04:25 65° ENE 22:05:16 58° ESE
Cosmos 1461 4.1 22:00:31 10° N 22:03:39 32° NE 22:03:39 32° NE
H-2A R/B 4.2 22:08:27 15° SW 22:10:14 20° W 22:13:21 10° NW
Cosmos 1066 Rocket 4.4 22:11:09 54° ENE 22:11:09 54° ENE 22:16:21 10° NNE
MetOp-B 4.1 22:10:02 61° SSW 22:10:55 76° WSW 22:16:17 10° NNW
Cosmos 1603 4.3 22:06:57 10° SW 22:12:25 53° WNW 22:17:54 10° N
SPOT 5 3.7 22:17:32 37° WSW 22:18:00 39° W 22:22:07 10° NNW
CZ-4 R/B 4.0 22:13:01 10° N 22:18:00 75° WNW 22:18:29 68° WSW
Geosat 4.1 22:13:50 10° NNE 22:18:50 71° WNW 22:19:56 53° SW
Milstar 3 Cent rocket 3.2 22:15:30 10° W 22:19:51 31° SW 22:19:51 31° SW
SeaSat 1 3.6 22:32:58 33° WSW 22:33:07 33° WSW 22:37:33 10° NW
Cosmos 1943 3.2 22:39:28 74° N 22:39:28 74° N 22:44:42 10° NNE
Terra 3.1 22:52:00 35° N 22:52:00 35° N 22:54:53 10° N
COSMOS 2455 4.4 22:56:15 11° WSW 23:01:15 32° WNW 23:06:33 10° N
Cosmos 1943 Rocket 4.1 22:58:08 10° NNE 23:01:00 19° NE 23:01:00 19° NE
Atlas Centaur 2 2.9 22:54:19 10° W 23:02:37 85° S 23:03:19 77° ESE
ATLAS 3B R/B 3.1 23:05:15 46° SW 23:07:38 68° WNW 23:15:14 10° NNE
USA 234 3.8 23:15:11 48° WSW 23:15:11 48° WSW 23:20:40 10° NW
Lacrosse 4 Rocket 4.3 23:26:58 14° N 23:26:58 14° N 23:27:35 10° N
H-2A R/B 3.6 23:31:07 29° NW 23:31:07 29° NW 23:33:49 10° NNW
Cosmos 2369 Rocket 3.2 23:24:20 10° NNW 23:28:01 42° NNW 23:28:01 42° NNW
USA 238 DEB 4.4 23:39:27 48° NE 23:39:27 48° NE 23:44:22 10° NNE
USA 238 4.4 23:39:35 48° NE 23:39:35 48° NE 23:44:27 10° NNE
